FLOCK 4V-5 (46290 NORAD) Tracking and Keplerian Element Data

This shows tracking and keplerian element data for the satellite.

Feedback or suggestion? Click here.




ElementValue
Catalog46290
NameFLOCK 4V-5
Epoch Orbit325
Epoch Day268.81371861
Epoch Year2020
RAAN341.5427
Inclination97.5175
Eccentricity9.93E-05
Argument of Perigee295.5261
Mean Anonmoly64.5866
Mean Motion15.10005327
Decay Rate5.54E-06
L11 46290U 20061U 20268.81371861 .00000554 00000-0 37947-4 0 9991
L22 46290 97.5175 341.5427 0000993 295.5261 64.5866 15.10005327 3253

Live tracking and technical data element details for FLOCK 4V-5 (NORAD 46290). FLOCK 4V-5 can be tracked NOW for your location showing map with azimuth and elevation plus other details from your city location.

Track the satellite on the map from your city or location and see movement details for azimuth, elevation, latitude, longitude, range, height, and movement on the map or in text.







IsCatalogInMostPopularTable: catalog: 46290, numindb: -1

Insert: records affected: 1


GetName: 46290 FLOCK 4V-5

Hit Count: inserted at: Sat, 26 Sep 2020 15:11:07 GMT